This is the latest recevied weather packets stored in our database for station/object KQ7A. If no packets are shown the sender has not sent any weather packets the latest 10 day(s).
| Time | Temp. | Humidity | Pressure | Rain* | Wind** | Luminosity | Snow |
|---|---|---|---|---|---|---|---|
| 1777440799 | 3.89° C | 78% | 1021.9 hPa | 0 mm | - | 0 W/m² | - |
| 1777440494 | 3.89° C | 79% | 1021.4 hPa | 0 mm | - | 0 W/m² | - |
| 1777440190 | 3.89° C | 80% | 1021.5 hPa | 0 mm | - | 0 W/m² | - |
| 1777439887 | 3.89° C | 81% | 1021.5 hPa | 0 mm | - | 0 W/m² | - |
| 1777439583 | 3.89° C | 79% | 1021.8 hPa | 0 mm | - | 0 W/m² | - |
| 1777439277 | 5° C | 75% | 1021.6 hPa | 0 mm | - | 0 W/m² | - |
| 1777438974 | 5.56° C | 69% | 1021.6 hPa | 0 mm | - | 0 W/m² | - |
| 1777438671 | 5.56° C | 69% | 1021.5 hPa | 0 mm | - | 0 W/m² | - |
| 1777438367 | 5° C | 70% | 1021.3 hPa | 0 mm | - | 0 W/m² | - |
| 1777438063 | 5° C | 70% | 1021.4 hPa | 0 mm | - | 0 W/m² | - |
| 1777437760 | 5.56° C | 70% | 1021.2 hPa | 0 mm | - | 0 W/m² | - |
| 1777437456 | 5.56° C | 70% | 1021.4 hPa | 0 mm | - | 0 W/m² | - |
| 1777437153 | 5.56° C | 71% | 1021.3 hPa | 0 mm | - | 0 W/m² | - |
| 1777436850 | 5° C | 73% | 1021.5 hPa | 0 mm | - | 0 W/m² | - |
| 1777436546 | 5.56° C | 71% | 1021.6 hPa | 0 mm | - | 0 W/m² | - |
| 1777436242 | 5.56° C | 67% | 1021.3 hPa | 0 mm | - | 0 W/m² | - |
| 1777435939 | 5.56° C | 68% | 1021.2 hPa | 0 mm | - | 0 W/m² | - |
| 1777435635 | 6.11° C | 69% | 1021.2 hPa | 0 mm | - | 0 W/m² | - |
| 1777435331 | 6.11° C | 69% | 1020.9 hPa | 0 mm | - | 0 W/m² | - |
| 1777435030 | 6.11° C | 68% | 1021.2 hPa | 0 mm | - | 0 W/m² | - |
| 1777434726 | 6.67° C | 69% | 1021.2 hPa | 0 mm | - | 0 W/m² | - |
| 1777434420 | 6.67° C | 68% | 1021.1 hPa | 0 mm | - | 0 W/m² | - |
| 1777434118 | 6.67° C | 69% | 1021.1 hPa | 0 mm | - | 0 W/m² | - |
| 1777433815 | 6.11° C | 71% | 1020.9 hPa | 0 mm | - | 0 W/m² | - |
| 1777433511 | 6.67° C | 69% | 1020.8 hPa | 0 mm | - | 0 W/m² | - |
* Rain latest hour (hover to see other rain measurements)
** Current wind speed in m/s (hover to see current wind gust speed)